Powrót do katalogu

STARLINK-36301

AktywnyŁącznośćVLEO
NORAD 67932·PAYLOAD·🇺🇸 United States

Wystrzelony Feb 24, 2026 z Vandenberg Space Force Base

Loading…

Następne Przeloty (najbliższe 24 godziny)

TLE

ŚwieżeSource: CelesTrak SupGP

Epoka: Sep 14, 2026, 22:57 UTC

1 67932C 26037A   26257.95673611 -.00014996  00000+0 -54321-3 0  2570
2 67932  43.0032 202.2698 0001466 264.0525  26.3451 15.27582539    10

Śledź STARLINK-36301 w czasie rzeczywistym z AllMySat

Download on the App Store